GAOFEN-1

Last updated on Sun Jul 06 2025 00:02:28 GMT+0000 (Coordinated Universal Time)

1 39150U 13018A 25186.56593343 .00000486 00000+0 77058-4 0 9999 2 39150 97.9493 259.8829 0016229 305.2422 54.7268 14.76492991657093
UTC large
Height (km)
Speed (km/s)
/
Latitude / Longitude
Inclination (degrees)
Orbital Period (minutes)
Azimuth
Elevation
Range (km)
Doppler Factor

Next 0 passes for location: London (51.5072 / 0.1276)

Sorry there are no passes over London.